STARLINK-5638, 55426

Orbit data source: Space-Track

STARLINK-5638, 55426 is a payload satellite owned by SpaceX/Seattle (US) in LEO that was launched on Tue, 31 Jan 2023 UTC via an FALCON 9 launch vehicle from the Air Force Western Test Range (AFWTR). Payload-class satellites include a variety of spacecraft equipped with specific instruments for various scientific and technological missions. These include communications satellites like Starlink; space stations such as the ISS; scientific satellites like the Hubble; Earth observation satellites from companies like Planet Labs, Umbra, and HawkEye 360; GPS; miniature CubeSats for education and research; and military/defense satellites.

Loading next visibility...
Identifier
55426, 2023-014AM
Orbit
LEO
Country
Flag of USUS
Related business
Manufacturer
SpaceX/Seattle
Mission
Operational Commercial Communications
Bus & Motor
STARLINK, Unknown motor
Mass
305 kg wet, ~290 kg dry
Launch date (UTC)
2023-01-31 (3 years ago)
Launch vehicle
FALCON 9
Launch site
Air Force Western Test Range (AFWTR)
Object type
Payload
Rocket body
Debris
Shape & HBR
Box + 1 Pan, 10.1 m
Radar Cross Section
13.562 m², Large (>1 m²)

Expand to show TLE details & history
Last TLE update: 2 days ago

TLE from 2 days ago
0 STARLINK-5638
1 55426U 23014AM  26171.39880030  .00000468  00000-0  47035-4 0  9991
2 55426  69.9991 185.6235 0003526 270.2688  89.8067 14.98330609186945
Epoch: 2026-06-20T09:34Z
TLE epoch observation values (Epoch: 2026-06-20T09:34:16.345Z)
Latitude
-0.00005°
Longitude
133.44139°
Altitude
574.47 km
Speed
7.574 km/s
True Right ascension
12h 22m 29s
True Declination
0° 00' 00"
Sunlit
Object was in daylight at epoch
Visualization orbit readout
Latitude
Unknown
Longitude
Unknown
Altitude
Unknown
Speed
Unknown
Apparent Right ascension
Unknown
Apparent Declination
Unknown
Sunlit
N/A
Visualization observer readout
Local Sidereal Time
21:31:22
Azimuth
Unknown
Elevation
Unknown
Doppler factor
Unknown
Orbital elements
Apogee altitude
572.452 km
Perigee altitude
567.552 km
Semi-major axis
6,948.139 km
Eccentricity
0.00035
Inclination
69.9991°
RAAN
185.6235°
Arg. of periapsis
270.2688°
True anomaly
89.8471°
Mean anomaly
89.8067°
Eccentric anomaly
89.8269°
Mean motion
3.74749 °/min
Orbital period
96.06 mins
BSTAR
0.000047035
Loading maneuver chart data...
Computing Atmospheric mass density...

Documentation

Showing up to 5 results
|